TimeHST,TemperatureF,Dew PointF,Humidity,Sea Level PressureIn,VisibilityMPH,Wind Direction,Wind SpeedMPH,Gust SpeedMPH,PrecipitationIn,Events,Conditions,WindDirDegrees,DateUTC
12:53 AM,68.0,66.9,96,29.95,10.0,West,3.5,-,N/A,,Overcast,280,2013-04-15 10:53:00
1:53 AM,66.9,66.0,97,29.94,10.0,West,4.6,-,N/A,,Overcast,280,2013-04-15 11:53:00
2:53 AM,66.9,66.0,97,29.93,10.0,WNW,4.6,-,N/A,,Overcast,290,2013-04-15 12:53:00
3:10 AM,66.2,66.2,100,29.93,10.0,WNW,8.1,-,N/A,,Overcast,290,2013-04-15 13:10:00
3:53 AM,66.9,66.0,97,29.93,7.0,SW,5.8,-,0.01,Rain,Light Rain,230,2013-04-15 13:53:00
4:01 AM,66.2,66.2,100,29.94,5.0,WSW,5.8,-,0.02,Rain,Light Rain,250,2013-04-15 14:01:00
4:53 AM,66.9,66.0,97,29.94,10.0,West,3.5,-,0.03,,Mostly Cloudy,280,2013-04-15 14:53:00
5:06 AM,66.2,66.2,100,29.94,10.0,West,5.8,-,N/A,,Mostly Cloudy,280,2013-04-15 15:06:00
5:53 AM,66.9,66.0,97,29.95,10.0,West,4.6,-,N/A,,Overcast,260,2013-04-15 15:53:00
6:53 AM,68.0,66.0,93,29.97,10.0,WNW,5.8,-,N/A,,Overcast,290,2013-04-15 16:53:00
7:53 AM,69.1,68.0,96,30.00,10.0,WNW,5.8,-,N/A,,Overcast,290,2013-04-15 17:53:00
8:53 AM,73.0,68.0,84,30.00,10.0,WNW,3.5,-,N/A,,Mostly Cloudy,290,2013-04-15 18:53:00
9:53 AM,75.0,66.9,76,30.01,10.0,South,6.9,-,N/A,,Overcast,170,2013-04-15 19:53:00
10:53 AM,75.9,69.1,79,30.01,10.0,South,8.1,-,N/A,,Overcast,170,2013-04-15 20:53:00
11:53 AM,75.9,69.1,79,30.01,10.0,SSE,12.7,-,N/A,,Overcast,160,2013-04-15 21:53:00
12:53 PM,77.0,68.0,74,29.99,10.0,South,10.4,-,N/A,,Overcast,180,2013-04-15 22:53:00
1:53 PM,77.0,66.9,71,29.98,10.0,South,11.5,-,N/A,,Overcast,170,2013-04-15 23:53:00
2:53 PM,78.1,66.0,66,29.97,10.0,South,11.5,-,N/A,,Mostly Cloudy,180,2013-04-16 00:53:00
3:53 PM,77.0,66.9,71,29.97,10.0,South,10.4,-,N/A,,Mostly Cloudy,170,2013-04-16 01:53:00
4:53 PM,75.9,66.9,74,29.98,10.0,ESE,6.9,-,N/A,,Mostly Cloudy,120,2013-04-16 02:53:00
5:53 PM,75.0,69.1,82,29.99,10.0,NE,9.2,-,N/A,,Overcast,50,2013-04-16 03:53:00
6:53 PM,73.0,68.0,84,30.01,10.0,NE,5.8,-,N/A,,Overcast,50,2013-04-16 04:53:00
7:06 PM,71.6,68.0,88,30.02,10.0,NE,6.9,-,N/A,,Overcast,40,2013-04-16 05:06:00
7:42 PM,71.6,68.0,88,30.03,10.0,NNE,6.9,-,N/A,,Scattered Clouds,30,2013-04-16 05:42:00
7:53 PM,71.1,68.0,90,30.03,10.0,NNE,6.9,-,N/A,,Scattered Clouds,30,2013-04-16 05:53:00
8:48 PM,71.6,68.0,88,30.03,10.0,NNE,5.8,-,N/A,,Mostly Cloudy,20,2013-04-16 06:48:00
8:53 PM,71.1,68.0,90,30.02,10.0,North,5.8,-,N/A,,Mostly Cloudy,10,2013-04-16 06:53:00
9:35 PM,71.6,68.0,88,30.04,8.0,WNW,3.5,-,0.00,Rain,Light Rain,300,2013-04-16 07:35:00
9:49 PM,71.6,68.0,88,30.05,5.0,Calm,Calm,-,0.00,Rain,Light Rain,0,2013-04-16 07:49:00
9:53 PM,71.1,68.0,90,30.05,6.0,Calm,Calm,-,0.00,Rain,Light Rain,0,2013-04-16 07:53:00
10:45 PM,69.8,69.8,100,30.07,9.0,WNW,5.8,-,0.01,Rain,Light Rain,300,2013-04-16 08:45:00
10:53 PM,70.0,69.1,97,30.07,10.0,West,4.6,-,0.01,Rain,Light Rain,280,2013-04-16 08:53:00
11:08 PM,69.8,69.8,100,30.07,10.0,WNW,4.6,-,0.00,,Overcast,290,2013-04-16 09:08:00
11:42 PM,69.8,69.8,100,30.07,10.0,Calm,Calm,-,0.00,,Overcast,0,2013-04-16 09:42:00
11:53 PM,69.1,69.1,100,30.06,10.0,Calm,Calm,-,0.00,,Overcast,0,2013-04-16 09:53:00